World > North America > United States > New York

Hourly Cincinnatus, NY Regional Weather

Feedback E-mail the Weather

Quick WX

Cincinnatus, NY Weather Maps

°F °C°F °C
Cincinnatus Weather Map
UTC Time: 7/6/2022, 15:30
Your Time:

Cincinnatus, NY Regional Weather

Expires:202207061600;;790008
ASUS41 KBGM 061510
RWRBGM

REGIONAL WEATHER ROUNDUP
NATIONAL WEATHER SERVICE BINGHAMTON NY
1100 AM EDT WED JUL 06 2022

Note: "fair" indicates few or no clouds below 12,000 feet with no
significant weather and/or obstructions to visibility.

* = Station(s) that does not report precipitation, such as rain, 
snow, etc, also no thunder or fog.


NYZ009-015>018-022>025-036-037-044>046-055>057-062-061600
...Central New York...
  
CITY           SKY/WX    TMP DP  RH WIND       PRES   REMARKS
Binghamton     PTSUNNY   69  61  75 VRB7      29.93S                  
Cortland       CLOUDY    68  63  83 N6        29.95R                  
Dansville      CLOUDY    70  62  76 NW8       29.96S                  
Elmira         CLOUDY    72  61  68 NW5       29.93R                  
Endicott       PTSUNNY   72  61  68 NW7       29.92S                  
Ithaca         CLOUDY    68  66  93 NW12      29.95S                  
Hamilton       CLOUDY    66  61  82 MISG      29.93R                  
Monticello     CLOUDY    73  61  65 NW15G21   29.91S                  
Norwich        CLOUDY    70  63  78 NW7       29.95R                  
Oneonta        MOSUNNY   66  63  88 NW5       29.94R                  
Penn Yan       CLOUDY    67  62  84 NW7       29.96R HAZE             
Rome           LGT RAIN  68  65  90 NW10      29.91R FOG              
Seneca Falls   CLOUDY    68  64  88 N8        29.95R                  
Sidney         PTSUNNY   70  63  78 NW5       29.92S                  
Skaneateles    CLOUDY    66  66 100 CALM      29.94S                  
Syracuse       CLOUDY    64  63  96 N14       29.92R                  
$$
 

SKY/WX - Weather  TMP - Temperature  DP - Dew Point  RH - Humidity
WIND - Wind Direction/Speed PRES - Barometric Pressure VSB - Visibility
WCI - Wind Chill Index E13G22 Wind - East Wind 13 mph/Gusts of 22 mph

Trending Headlines

Cincinnatus Radar Loop



Cincinnatus Quick Facts


National Two Day Weather Forecast


E-mail the Cincinnatus Weather Forecast

Voice your opinion or tell us about page issues...